Date String (YYYY-MM-DD hh:mm:ss) UTC,Instrument flags,Ambient pressure (hPa),Sample flow (lpm),Bypass flow (lpm),Sample temperature (°C),Ambient temperature (°C),ASC tube jacket temperature (°C),LED temperature (°C),Box temperature (°C),Sample RH (%),Span deviation,Mass concentration (μg/m³),Mass concentration (μg/m³),Mass concentration (μg/m³)
DateTimeUTC,F1_M11,P_M11,Q1_M11,Q2_M11,T1_M11,T2_M11,T3_M11,T4_M11,T5_M11,U1_M11,ZSPAN_M11,X0_M11,X2_M11,X1_M11
2021-09-05 00:00:00,,0828.5,5.00,0.00,29.3,28.1,00.0,38.3,31.2,22.9,0001.6,0024.17,0016.64,0015.63
2021-09-05 00:01:00,,0828.5,4.98,0.00,29.4,28.3,00.0,38.3,31.3,23.0,0001.7,0023.95,0016.67,0015.70
2021-09-05 00:02:00,,0828.5,5.00,0.00,29.4,28.5,00.0,38.3,31.4,23.1,0001.7,0023.85,0016.77,0015.75
2021-09-05 00:03:00,,0828.5,5.01,0.00,29.5,28.7,00.0,38.4,31.5,23.2,0001.8,0024.68,0016.84,0015.79
2021-09-05 00:04:00,,0828.5,4.99,0.00,29.5,27.5,00.0,38.4,31.1,23.2,0001.8,0024.76,0016.87,0015.83
2021-09-05 00:05:00,,0828.5,5.01,0.00,29.3,25.8,00.0,38.3,30.5,23.5,0001.7,0023.99,0016.88,0015.83
2021-09-05 00:06:00,,0828.4,5.00,0.00,29.2,25.7,00.0,38.3,30.5,23.5,0002.0,0023.56,0016.96,0015.86
2021-09-05 00:07:00,,0828.5,4.99,0.00,29.1,26.2,00.0,38.3,30.7,23.5,0002.0,0023.43,0016.96,0015.88
2021-09-05 00:08:00,,0828.5,5.00,0.00,29.1,26.7,00.0,38.3,30.8,23.4,0002.0,0023.30,0016.91,0015.86
2021-09-05 00:09:00,,0828.5,5.01,0.00,29.2,27.2,00.0,38.2,30.9,23.5,0002.2,0023.37,0016.88,0015.86
2021-09-05 00:10:00,,0828.5,4.99,0.00,29.2,27.6,00.0,38.2,31.0,23.5,0002.2,0023.67,0016.94,0015.87
2021-09-05 00:11:00,,0828.5,5.00,0.00,29.3,27.9,00.0,38.3,31.1,23.4,0002.2,0023.96,0016.98,0015.88
2021-09-05 00:12:00,,0829.0,5.00,0.00,29.3,28.2,00.0,38.3,31.2,23.4,0002.1,0024.79,0017.00,0015.88
2021-09-05 00:13:00,,0829.0,5.00,0.00,29.4,28.4,00.0,38.3,31.3,23.3,0002.0,0025.12,0017.00,0015.87
2021-09-05 00:14:00,,0829.1,5.00,0.00,29.4,28.6,00.0,38.3,31.4,23.3,0002.1,0025.08,0016.96,0015.84
2021-09-05 00:15:00,,0828.7,5.00,0.00,29.5,28.7,00.0,38.4,31.5,23.2,0002.3,0025.32,0016.91,0015.80
2021-09-05 00:16:00,,0828.9,5.01,0.00,29.5,28.1,00.0,38.4,31.3,23.2,0002.4,0025.57,0016.91,0015.76
2021-09-05 00:17:00,,0829.0,5.00,0.00,29.4,26.1,00.0,38.4,30.7,23.3,0002.2,0025.46,0016.83,0015.72
2021-09-05 00:18:00,,0828.6,5.00,0.00,29.2,25.6,00.0,38.3,30.5,23.5,0002.1,0026.24,0016.79,0015.68
2021-09-05 00:19:00,,0829.0,5.01,0.00,29.2,26.0,00.0,38.3,30.6,23.5,0002.1,0026.88,0016.78,0015.66
2021-09-05 00:20:00,,0828.8,5.00,0.00,29.1,26.5,00.0,38.3,30.7,23.5,0001.9,0027.16,0016.73,0015.64
2021-09-05 00:21:00,,0828.8,5.00,0.00,29.1,27.0,00.0,38.3,30.9,23.6,0001.8,0027.04,0016.65,0015.60
2021-09-05 00:22:00,,0828.7,4.99,0.00,29.2,27.4,00.0,38.2,31.0,23.7,0001.8,0027.09,0016.58,0015.56
2021-09-05 00:23:00,,0828.7,4.99,0.00,29.2,27.8,00.0,38.2,31.1,23.7,0001.7,0027.09,0016.64,0015.54
2021-09-05 00:24:00,,0828.8,5.00,0.00,29.3,28.1,00.0,38.3,31.2,23.7,0001.8,0026.73,0016.64,0015.51
2021-09-05 00:25:00,,0828.8,5.00,0.00,29.3,28.3,00.0,38.3,31.3,23.6,0001.7,0025.92,0016.62,0015.49
2021-09-05 00:26:00,,0828.8,5.00,0.00,29.4,28.5,00.0,38.3,31.4,23.5,0001.5,0025.61,0016.62,0015.49
2021-09-05 00:27:00,,0828.9,5.00,0.00,29.5,28.7,00.0,38.3,31.4,23.5,0001.3,0026.05,0016.60,0015.52
2021-09-05 00:28:00,,0829.0,4.99,0.00,29.5,28.8,00.0,38.4,31.5,23.4,0001.4,0026.03,0016.61,0015.54
2021-09-05 00:29:00,,0829.1,5.01,0.00,29.5,27.6,00.0,38.4,31.2,23.5,0001.6,0025.57,0016.63,0015.56
2021-09-05 00:30:00,,0829.2,4.98,0.00,29.4,25.8,00.0,38.4,30.7,23.7,0001.5,0025.10,0016.64,0015.55
2021-09-05 00:31:00,,0829.2,5.01,0.00,29.2,25.7,00.0,38.4,30.6,24.0,0001.5,0025.36,0016.65,0015.54
2021-09-05 00:32:00,,0829.2,4.99,0.00,29.2,26.1,00.0,38.3,30.7,24.0,0001.4,0025.28,0016.67,0015.51
2021-09-05 00:33:00,,0828.8,5.01,0.00,29.1,26.6,00.0,38.3,30.8,24.0,0001.5,0025.18,0016.68,0015.53
2021-09-05 00:34:00,,0828.7,4.99,0.00,29.2,27.1,00.0,38.3,30.9,24.0,0001.5,0024.51,0016.60,0015.54
2021-09-05 00:35:00,,0828.7,5.00,0.00,29.2,27.5,00.0,38.3,31.0,23.9,0001.4,0024.26,0016.57,0015.54
2021-09-05 00:36:00,,0828.7,5.00,0.00,29.2,27.9,00.0,38.3,31.1,23.7,0001.4,0024.33,0016.58,0015.55
2021-09-05 00:37:00,,0828.8,4.99,0.00,29.3,28.1,00.0,38.3,31.2,23.7,0001.2,0024.33,0016.59,0015.56
2021-09-05 00:38:00,,0828.8,5.00,0.00,29.4,28.4,00.0,38.3,31.3,23.6,0001.3,0023.83,0016.65,0015.56
2021-09-05 00:39:00,,0828.8,5.00,0.00,29.4,28.6,00.0,38.3,31.4,23.5,0001.2,0023.37,0016.63,0015.55
2021-09-05 00:40:00,,0829.1,5.00,0.00,29.5,28.8,00.0,38.4,31.4,23.4,0001.2,0023.09,0016.62,0015.54
2021-09-05 00:41:00,,0829.4,5.01,0.00,29.5,28.1,00.0,38.4,31.3,23.3,0001.3,0022.96,0016.59,0015.55
2021-09-05 00:42:00,,0829.2,5.00,0.00,29.4,26.3,00.0,38.4,30.7,23.5,0001.3,0022.77,0016.58,0015.57
2021-09-05 00:43:00,,0829.1,4.99,0.00,29.2,25.6,00.0,38.3,30.6,23.6,0001.3,0023.32,0016.59,0015.59
2021-09-05 00:44:00,,0829.3,5.01,0.00,29.2,26.0,00.0,38.3,30.6,23.8,0001.2,0023.01,0016.59,0015.58
2021-09-05 00:45:00,,0829.3,4.99,0.00,29.1,26.5,00.0,38.3,30.7,23.9,0001.0,0023.09,0016.60,0015.58
2021-09-05 00:46:00,,0829.3,5.01,0.00,29.1,26.9,00.0,38.3,30.9,23.9,0001.0,0023.18,0016.61,0015.61
2021-09-05 00:47:00,,0829.2,4.99,0.00,29.2,27.4,00.0,38.2,31.0,23.8,0001.0,0023.46,0016.69,0015.66
2021-09-05 00:48:00,,0829.3,5.01,0.00,29.2,27.7,00.0,38.3,31.1,23.7,0001.0,0024.21,0016.73,0015.70
2021-09-05 00:49:00,,0829.2,4.99,0.00,29.3,28.0,00.0,38.3,31.2,23.6,0000.9,0024.73,0016.75,0015.74
2021-09-05 00:50:00,,0828.8,4.99,0.00,29.3,28.3,00.0,38.3,31.2,23.6,0001.0,0025.49,0016.84,0015.78
2021-09-05 00:51:00,,0828.8,4.99,0.00,29.4,28.5,00.0,38.3,31.3,23.6,0000.9,0026.85,0016.94,0015.84
2021-09-05 00:52:00,,0829.0,5.00,0.00,29.4,28.7,00.0,38.3,31.4,23.3,0000.7,0027.51,0017.04,0015.90
2021-09-05 00:53:00,,0829.0,5.01,0.00,29.5,28.8,00.0,38.4,31.4,23.4,0000.9,0027.97,0017.08,0015.92
2021-09-05 00:54:00,,0829.0,4.98,0.00,29.6,28.7,00.0,38.4,31.4,23.3,0001.2,0027.79,0017.13,0015.95
2021-09-05 00:55:00,,0828.9,5.01,0.00,29.5,26.9,00.0,38.4,30.9,23.3,0001.4,0028.62,0017.21,0015.99
2021-09-05 00:56:00,,0828.9,4.98,0.00,29.3,25.5,00.0,38.4,30.6,23.5,0001.5,0029.07,0017.26,0016.00
2021-09-05 00:57:00,,0828.9,5.01,0.00,29.2,25.7,00.0,38.4,30.6,23.6,0001.5,0030.00,0017.29,0016.01
2021-09-05 00:58:00,,0829.0,5.01,0.00,29.1,26.2,00.0,38.3,30.7,23.6,0001.6,0031.42,0017.28,0016.01
2021-09-05 00:59:00,,0828.9,4.99,0.00,29.1,26.7,00.0,38.3,30.8,23.6,0001.8,0031.40,0017.27,0016.00
